Temperature
9 8 8 8 9 10 10 10 10 10 11 11 11 10 11 12 12 13 14 15 16 16 17 17 17 18 18 18 18 18 18 18 18 17 17 17 17 16 16 15 15 15 14 14
8 8 8 9 9 10 10 9 9 10 11 11 10 10 10 11 11 13 14 14 15 16 17 17 17 17 17 17 18 18 18 18 18 18 18 17 17 17 17 16 16 15 14 14
8 8 9 9 9 9 9 9 9 10 9 9 9 9 9 10 11 12 13 14 15 15 16 16 17 17 17 17 17 17 17 17 17 17 17 17 17 17 16 16 15 15 14 14
8 9 9 9 9 9 9 10 10 9 8 7 7 7 8 9 9 11 12 14 15 15 16 16 16 16 16 17 17 17 17 17 17 17 17 17 17 17 17 16 16 15 15 14
8 9 9 9 9 9 9 9 9 8 7 6 6 6 8 8 10 11 11 14 16 16 16 16 16 16 16 16 16 16 16 16 17 16 16 16 17 17 17 17 16 16 15 14
8 9 9 9 9 9 9 8 7 6 5 5 6 5 7 8 10 12 12 14 15 16 16 15 15 15 15 16 16 16 16 16 16 16 16 16 16 16 16 16 16 16 15 14
8 8 9 9 8 8 8 6 6 6 5 5 6 6 7 9 10 10 11 13 14 15 15 15 15 15 15 15 15 15 15 16 16 16 15 15 16 16 16 16 16 16 15 14
6 6 8 8 8 7 7 6 5 6 5 6 7 6 8 9 10 11 12 13 13 13 14 13 13 14 14 14 14 15 15 15 15 15 15 15 15 15 15 15 15 15 15 15
6 7 8 8 9 8 7 6 6 5 5 5 5 6 8 11 10 10 11 12 12 12 12 12 12 13 13 13 13 13 14 14 14 14 14 14 14 15 15 15 15 14 14 13
7 6 7 8 8 8 7 6 4 4 4 5 6 6 8 10 10 10 9 10 11 11 11 11 11 11 12 12 12 12 13 13 13 14 14 14 14 14 14 14 14 13 13 12
8 6 7 7 7 6 7 6 5 4 4 5 5 7 9 10 10 9 9 10 10 10 10 10 10 10 10 11 11 11 12 12 13 13 13 13 13 13 13 13 13 12 11 10
8 6 5 6 7 7 6 6 5 4 4 4 4 6 9 8 9 9 9 10 9 9 9 9 9 9 9 10 10 10 11 11 12 12 12 12 12 12 12 11 11 10 10 9
8 5 4 5 6 6 6 6 6 5 5 4 4 6 9 8 9 10 10 9 8 8 8 8 8 8 8 8 9 9 10 10 11 11 11 11 11 11 10 10 9 9 8 8
7 5 4 5 6 6 6 6 6 5 4 4 4 6 8 8 9 9 9 8 7 6 6 6 6 7 7 7 7 8 9 9 9 10 10 10 10 9 9 8 8 7 7 6
7 5 5 6 6 6 6 6 6 6 5 5 5 6 8 9 9 8 7 6 6 5 5 5 5 6 6 6 7 7 7 7 8 8 8 8 8 7 7 7 6 5 5 4
6 6 6 6 7 6 6 6 7 6 7 6 7 7 9 9 9 7 6 5 4 4 4 4 4 5 5 5 5 5 6 6 6 6 6 6 6 5 5 4 4 3 3 2
5 5 6 5 6 7 6 7 7 7 7 7 7 8 9 9 8 6 4 3 3 3 3 3 4 4 4 4 4 4 4 4 4 3 3 3 3 3 2 2 2 2 2 2
5 5 6 6 6 6 8 9 9 8 8 8 9 9 9 8 6 4 3 2 2 2 2 3 3 3 3 3 3 3 2 2 2 2 1 1 1 1 1 1 1 1 1 1
6 6 6 6 6 6 8 9 9 9 8 9 9 9 8 7 5 4 3 2 2 1 2 2 2 2 2 2 2 2 1 1 1 -0 -0 -0 -0 0 0 0 0 1 1 1
6 6 6 6 6 6 9 10 10 9 8 9 9 8 7 6 6 5 2 1 1 1 1 1 1 1 1 1 1 1 0 -0 -1 -1 -1 -1 -0 -0 0 0 0 0 0 0
6 6 6 6 6 6 8 9 9 9 9 10 9 8 7 6 5 3 2 1 0 0 0 0 0 0 -0 -0 0 0 -1 -1 -1 -1 -1 -1 -0 -0 -0 0 0 0 0 -0
6 6 6 6 6 6 9 9 9 9 10 9 9 8 7 5 4 3 2 1 0 -0 -0 -0 -1 -1 -1 -1 -0 -0 -1 -1 -1 -1 -1 -1 -0 -0 -0 -0 -0 -1 -1 -1
6 6 6 6 7 9 10 10 10 10 9 9 8 7 6 5 3 2 2 1 0 -0 -0 -1 -1 -1 -1 -1 -1 -0 -1 -1 -1 -0 -0 -0 -0 -0 -1 -1 -1 -1 -1 -1
7 7 7 7 7 8 9 10 10 9 9 8 7 6 5 5 4 3 2 1 0 -0 0 -0 -0 -1 -1 -1 -1 -0 -0 -0 -0 -0 -0 -0 -0 -1 -1 -1 -1 -1 -2 -2
7 7 7 7 7 8 9 9 9 9 8 8 7 6 5 5 4 3 2 1 1 0 0 0 0 0 0 0 0 0 0 0 0 0 -0 -1 -1 -1 -1 -1 -2 -2 -2 -3
6 7 7 7 8 8 9 9 9 8 8 7 6 5 5 4 4 3 2 2 1 1 1 1 1 1 1 0 0 0 0 0 0 -0 -0 -1 -1 -1 -2 -2 -2 -3 -3 -4
Wind_Speed
6 5 9 10 9 6 5 3 4 5 4 3 6 10 14 11 10 13 14 14 14 16 14 11 10 10 10 9 9 11 13 14 13 11 12 13 13 11 11 10 13 16 16 17
6 7 7 6 6 4 2 2 4 4 4 4 6 12 14 13 13 17 19 18 17 14 12 11 10 9 9 9 9 10 12 13 14 14 15 13 13 10 10 9 10 15 16 17
7 5 8 7 5 6 5 5 4 3 6 6 6 10 9 9 8 12 15 16 15 16 15 13 11 10 9 9 10 10 12 13 14 13 8 6 4 3 3 7 9 10 14 16
4 3 7 8 6 6 4 1 3 2 4 5 4 6 9 8 10 9 10 9 11 12 11 9 8 8 9 10 9 9 10 11 12 12 11 14 12 10 10 9 8 9 10 13
5 4 6 7 5 6 5 4 5 4 4 4 2 4 11 7 7 8 8 7 7 7 6 7 6 7 6 6 5 6 7 9 10 12 15 17 12 9 6 7 9 8 7 9
3 3 4 5 4 6 7 6 6 5 5 4 5 6 8 6 6 6 7 6 4 3 3 3 3 3 3 4 3 3 5 7 8 11 14 16 15 12 11 10 11 8 6 6
3 2 2 4 6 4 6 6 3 3 1 7 4 5 10 11 9 8 8 5 3 2 2 1 1 2 3 4 4 4 5 6 7 10 13 15 16 18 18 15 14 12 9 7
7 5 5 4 5 6 6 7 6 5 4 5 2 7 8 9 7 4 2 2 4 5 4 4 4 4 4 5 5 6 6 7 7 9 11 12 14 13 12 13 13 13 10 8
6 3 3 4 4 7 7 5 4 3 1 4 6 7 9 4 4 6 7 8 8 7 7 7 8 7 7 8 8 7 8 7 7 8 9 10 12 12 12 11 10 9 9 10
5 6 4 4 4 2 5 6 5 4 3 4 6 6 5 4 5 7 8 9 9 10 10 10 9 9 9 9 8 7 7 7 6 7 8 9 10 11 12 13 13 13 12 13
4 6 5 5 6 7 5 4 4 4 3 3 5 7 6 3 3 4 6 8 10 11 12 12 11 10 9 8 7 6 5 5 4 6 8 10 10 11 13 13 14 14 14 15
3 5 4 3 3 7 6 6 6 5 4 4 3 8 7 5 5 6 9 11 12 12 11 11 11 10 9 7 6 5 4 4 4 7 9 11 12 13 13 13 14 14 15 14
5 6 5 1 1 4 5 6 6 4 3 4 4 9 5 5 10 11 12 13 13 13 13 11 9 9 8 6 5 4 2 3 5 9 12 12 13 13 13 14 14 15 15 14
5 4 5 7 5 6 5 7 9 7 5 5 9 13 15 15 16 14 12 11 11 11 11 9 8 7 6 5 2 1 3 5 7 10 12 13 13 13 14 14 14 15 15 15
5 3 3 4 4 4 6 8 11 13 11 9 9 12 19 17 15 12 10 10 11 11 10 9 7 6 5 5 4 6 7 8 9 11 11 12 13 14 15 15 14 15 15 15
4 3 1 3 5 7 8 11 14 14 14 16 19 20 18 13 9 8 8 9 10 10 9 8 6 5 5 6 7 8 9 9 10 12 13 13 15 15 15 15 15 15 15 14
4 4 1 3 4 2 7 11 14 8 9 10 15 13 11 11 9 6 6 7 8 8 8 7 5 6 6 7 8 10 11 12 13 14 13 14 15 16 15 16 16 15 14 13
6 4 1 2 3 5 6 3 7 9 10 11 10 10 9 9 4 1 3 5 6 7 6 6 6 8 8 9 11 12 12 13 14 15 14 14 15 16 16 15 14 13 11 10
5 5 2 1 3 7 8 4 4 5 6 6 8 10 7 4 1 1 4 4 4 5 5 6 7 8 10 10 12 13 14 14 15 14 14 14 14 15 15 14 12 10 10 8
4 4 2 2 3 5 5 2 2 2 4 5 6 8 6 2 3 2 3 4 5 6 6 7 8 10 11 10 12 14 14 14 14 14 13 13 13 14 13 12 10 8 8 7
5 5 6 5 5 7 7 3 3 1 4 5 5 6 4 3 2 3 5 5 6 6 7 8 9 10 10 10 12 14 14 13 13 13 13 12 12 11 11 9 8 7 6 6
8 6 6 5 6 8 5 3 4 6 5 4 4 3 3 4 6 6 6 6 6 7 8 9 9 9 8 9 12 13 12 11 12 12 12 11 10 9 8 8 7 6 6 6
7 8 5 8 9 6 3 5 4 2 4 4 2 2 6 7 6 7 6 7 7 7 7 8 9 9 8 8 10 12 10 10 11 11 11 9 9 7 6 6 7 5 5 5
4 5 4 5 8 8 8 5 3 3 4 3 3 4 7 8 9 9 8 8 8 8 8 8 9 9 8 8 9 10 10 10 11 11 9 8 8 7 6 5 5 5 4 4
4 4 4 6 7 6 5 4 4 3 2 2 2 3 7 10 11 10 9 9 8 8 8 8 8 9 9 9 9 9 9 9 10 9 8 7 7 6 6 5 4 4 2 3
4 6 5 6 6 4 5 4 4 4 3 3 2 3 6 10 12 11 10 9 9 9 9 9 9 9 9 9 8 7 7 8 10 8 7 5 5 5 5 5 4 6 4 6
Wind_Direction
149 161 193 194 191 169 149 166 235 256 322 327 254 260 266 268 268 264 261 257 255 258 261 260 251 246 247 243 227 215 210 207 199 195 192 192 197 196 194 193 189 185 179 173
149 208 196 175 195 214 221 243 261 283 349 338 289 278 269 255 248 248 253 255 255 257 265 261 255 250 243 243 236 226 217 211 204 200 198 197 193 193 192 188 186 184 177 173
168 191 172 174 188 200 216 215 235 286 343 0 340 299 276 274 257 254 251 252 253 251 253 256 256 253 250 247 240 233 223 217 211 204 191 165 133 112 154 186 188 185 177 174
170 186 157 166 183 169 204 208 170 73 31 321 18 304 292 291 302 284 272 260 253 251 247 247 249 253 250 249 246 240 234 224 213 198 184 177 182 185 190 187 182 173 174 172
177 159 148 165 164 144 146 96 89 84 77 338 268 233 284 304 291 291 292 279 264 256 244 244 244 246 254 259 258 251 243 233 217 200 192 192 194 185 165 155 158 163 164 167
123 137 140 144 114 123 123 69 58 55 63 291 222 190 279 266 254 301 320 318 294 278 259 260 264 269 282 287 283 268 251 243 223 206 198 196 187 166 157 161 166 164 155 155
122 103 116 114 107 104 105 95 59 349 292 256 205 197 254 263 266 270 286 311 333 347 357 327 310 313 303 302 295 282 258 250 231 212 204 199 188 176 176 173 172 167 163 163
147 179 183 147 148 153 145 139 163 200 232 283 252 230 254 271 286 286 307 357 11 4 346 319 301 291 286 288 292 287 266 252 236 216 206 197 185 180 179 174 170 171 169 159
145 146 134 144 120 130 139 164 155 134 318 283 278 283 296 283 1 15 18 16 358 340 325 312 306 297 284 279 277 269 260 248 235 215 196 186 177 171 164 158 150 147 140 141
125 118 134 124 97 76 136 142 116 140 184 268 290 273 254 291 351 4 7 354 336 327 317 307 301 294 286 277 271 268 252 236 225 199 181 174 167 160 153 149 148 146 144 143
92 116 130 136 182 178 147 152 147 147 173 189 286 276 225 233 299 327 330 329 325 318 312 307 303 299 292 286 277 268 256 234 202 176 159 151 150 145 144 147 145 143 142 143
118 112 137 202 226 178 168 175 152 162 216 197 226 273 269 257 275 303 316 317 313 309 307 305 301 301 300 295 290 274 242 205 178 154 144 141 139 139 140 141 140 139 138 137
124 114 111 67 310 174 196 191 177 157 157 193 219 263 296 323 315 313 314 314 314 312 310 309 306 305 305 300 294 279 215 164 141 136 134 133 136 137 137 135 135 134 132 129
113 119 163 181 193 175 199 197 188 178 202 224 233 262 288 301 305 308 311 312 312 309 313 315 314 314 320 322 329 43 85 102 115 122 128 130 131 130 129 127 128 127 125 124
104 146 199 237 235 197 211 210 201 207 212 224 250 262 280 292 300 305 314 321 322 323 327 329 330 334 355 18 45 68 75 83 99 107 111 115 116 117 118 118 118 117 116 114
111 139 187 284 251 221 236 232 222 225 231 241 260 274 277 286 297 311 325 329 329 331 335 340 350 12 34 47 58 68 73 80 91 99 104 108 111 111 111 111 111 109 107 107
144 143 150 286 317 331 259 230 214 210 215 220 245 257 280 298 310 322 330 331 331 334 341 353 15 38 53 64 73 78 82 85 89 93 98 102 105 106 105 105 104 103 102 100
145 144 161 299 339 252 248 262 190 208 236 228 241 266 286 296 298 18 359 338 339 350 3 21 41 58 67 75 82 86 88 91 94 95 96 98 102 103 102 101 100 100 100 103
149 150 177 237 279 282 286 257 183 203 262 229 238 268 285 303 264 195 37 29 19 24 36 49 61 74 79 84 90 94 92 94 95 97 99 100 102 103 102 103 103 102 104 105
151 147 184 208 261 257 263 269 133 127 273 238 233 265 280 292 293 298 73 61 52 53 57 67 73 78 82 86 94 96 96 96 97 98 99 100 102 104 105 105 103 102 106 109
178 194 210 219 245 267 257 248 122 235 267 256 240 250 253 225 224 119 105 89 78 76 76 78 80 81 83 90 97 97 98 99 102 102 100 99 101 104 106 104 105 109 109 106
182 190 197 193 218 254 258 163 192 241 269 268 255 236 191 152 124 120 116 111 104 97 92 91 90 87 87 94 100 100 98 100 103 103 101 98 97 100 105 107 105 103 105 98
198 197 193 203 222 245 251 233 252 265 265 263 245 216 158 149 150 140 131 125 120 116 111 108 106 100 93 96 106 109 109 112 110 106 103 101 97 95 103 108 107 97 92 95
236 193 208 246 259 261 263 259 253 251 253 257 240 202 167 157 150 145 142 137 132 126 123 121 117 111 106 105 107 115 120 118 114 110 108 107 104 97 87 85 91 96 97 98
236 197 220 251 270 285 272 237 232 239 243 252 241 194 171 154 152 152 149 146 140 134 130 126 123 120 119 118 117 122 124 122 116 111 106 100 97 98 88 78 82 98 103 132
221 202 206 238 243 241 265 245 209 220 232 220 190 152 151 154 152 150 148 145 142 137 132 129 128 127 126 124 119 117 118 121 119 114 107 103 100 94 92 90 70 69 79 73
Height
1470 1475 1475 1475 1477 1479 1481 1484 1485 1482 1477 1476 1476 1474 1467 1464 1464 1462 1459 1457 1456 1456 1457 1459 1462 1465 1467 1469 1471 1473 1476 1478 1481 1483 1485 1488 1490 1493 1496 1498 1501 1503 1506 1508
1471 1472 1471 1472 1475 1478 1480 1484 1484 1481 1478 1477 1477 1473 1464 1459 1457 1454 1452 1450 1449 1450 1451 1453 1456 1459 1460 1462 1464 1466 1468 1471 1473 1475 1477 1480 1483 1486 1489 1492 1496 1498 1501 1503
1466 1467 1468 1472 1475 1478 1480 1483 1483 1483 1480 1479 1479 1472 1462 1452 1448 1445 1444 1443 1443 1444 1445 1447 1450 1453 1454 1456 1458 1459 1461 1464 1466 1468 1471 1474 1477 1480 1483 1486 1489 1492 1495 1498
1465 1464 1466 1470 1473 1476 1480 1479 1480 1482 1487 1490 1488 1487 1464 1454 1448 1442 1439 1438 1437 1438 1440 1442 1444 1446 1448 1450 1452 1453 1454 1456 1459 1461 1463 1465 1467 1469 1473 1478 1482 1486 1489 1492
1464 1464 1466 1470 1472 1474 1479 1479 1481 1485 1490 1495 1492 1493 1469 1457 1450 1441 1437 1435 1435 1436 1437 1439 1441 1442 1443 1445 1446 1446 1448 1449 1451 1453 1455 1458 1460 1463 1467 1471 1475 1479 1483 1486
1463 1464 1466 1468 1471 1473 1477 1482 1486 1491 1497 1501 1491 1495 1476 1459 1449 1442 1437 1435 1434 1435 1436 1437 1438 1439 1440 1440 1441 1441 1442 1442 1444 1446 1447 1450 1453 1457 1460 1464 1468 1472 1476 1480
1465 1466 1466 1467 1473 1476 1478 1490 1499 1499 1500 1497 1485 1488 1472 1451 1446 1444 1440 1437 1436 1436 1436 1436 1436 1436 1436 1436 1436 1436 1436 1437 1438 1439 1440 1442 1446 1449 1453 1458 1462 1466 1469 1473
1467 1471 1468 1468 1471 1476 1480 1487 1498 1499 1499 1491 1480 1480 1462 1446 1442 1440 1439 1437 1436 1436 1436 1435 1434 1433 1432 1432 1431 1431 1431 1431 1431 1432 1433 1435 1439 1443 1447 1452 1456 1459 1463 1466
1465 1468 1467 1467 1469 1473 1480 1486 1487 1496 1497 1497 1484 1473 1457 1443 1442 1439 1438 1437 1437 1436 1435 1433 1431 1429 1428 1426 1425 1425 1424 1424 1425 1425 1426 1428 1431 1435 1440 1445 1449 1453 1457 1461
1457 1468 1468 1469 1471 1473 1476 1481 1492 1501 1500 1493 1482 1475 1460 1446 1444 1441 1440 1438 1436 1435 1432 1430 1427 1424 1422 1420 1419 1418 1418 1418 1418 1419 1420 1422 1425 1429 1434 1439 1443 1447 1451 1455
1456 1467 1470 1471 1474 1476 1478 1482 1487 1496 1497 1496 1488 1467 1449 1444 1443 1442 1440 1438 1435 1432 1429 1425 1422 1418 1415 1413 1412 1411 1411 1411 1412 1413 1414 1416 1419 1424 1429 1433 1438 1442 1447 1451
1456 1466 1473 1473 1471 1471 1475 1479 1485 1494 1494 1495 1495 1470 1442 1443 1441 1440 1438 1435 1432 1428 1424 1421 1417 1413 1410 1407 1405 1405 1405 1405 1406 1408 1409 1412 1415 1420 1424 1429 1434 1438 1443 1448
1456 1467 1478 1478 1478 1475 1474 1476 1478 1483 1487 1492 1490 1467 1441 1440 1438 1436 1434 1431 1428 1424 1419 1415 1411 1408 1404 1402 1400 1400 1400 1401 1402 1404 1406 1409 1412 1417 1421 1426 1430 1435 1440 1445
1455 1465 1473 1473 1470 1469 1471 1471 1473 1478 1485 1484 1476 1460 1444 1440 1437 1434 1431 1428 1424 1420 1416 1411 1407 1404 1401 1398 1396 1396 1397 1398 1400 1401 1403 1406 1410 1415 1419 1423 1428 1433 1438 1443
1456 1465 1466 1466 1463 1464 1465 1466 1468 1471 1472 1473 1463 1455 1442 1438 1435 1432 1428 1425 1421 1417 1413 1409 1405 1402 1399 1397 1396 1396 1396 1398 1399 1400 1403 1405 1409 1414 1418 1423 1427 1432 1437 1443
1458 1463 1463 1463 1460 1462 1462 1460 1460 1461 1461 1460 1455 1448 1437 1434 1432 1429 1427 1424 1420 1416 1412 1409 1405 1402 1400 1399 1398 1398 1398 1399 1400 1402 1404 1407 1410 1415 1419 1423 1428 1433 1439 1445
1459 1463 1465 1465 1460 1458 1459 1448 1450 1452 1449 1449 1447 1440 1433 1432 1429 1428 1425 1423 1420 1416 1412 1409 1406 1404 1402 1402 1401 1401 1401 1402 1403 1404 1407 1410 1413 1417 1421 1426 1431 1436 1442 1447
1459 1462 1464 1463 1462 1462 1446 1436 1438 1441 1439 1438 1437 1433 1431 1430 1428 1426 1424 1422 1418 1416 1413 1410 1408 1406 1405 1404 1404 1404 1405 1406 1407 1409 1411 1414 1417 1421 1425 1430 1435 1441 1446 1451
1455 1460 1462 1463 1461 1457 1442 1436 1435 1438 1436 1432 1432 1430 1428 1427 1426 1425 1423 1421 1418 1416 1414 1412 1410 1409 1408 1408 1408 1409 1410 1411 1412 1415 1417 1421 1423 1426 1430 1435 1440 1445 1449 1453
1455 1458 1461 1461 1460 1457 1440 1433 1432 1436 1435 1429 1428 1427 1426 1426 1426 1425 1422 1420 1418 1416 1415 1414 1413 1412 1412 1412 1413 1413 1414 1416 1418 1421 1423 1426 1429 1433 1437 1441 1445 1449 1452 1455
1455 1457 1457 1457 1457 1450 1436 1432 1434 1438 1433 1427 1425 1424 1424 1424 1424 1424 1421 1420 1419 1418 1417 1416 1416 1415 1416 1416 1417 1417 1419 1421 1424 1426 1429 1432 1436 1439 1442 1446 1449 1452 1454 1456
1449 1451 1452 1452 1454 1448 1430 1431 1433 1430 1425 1424 1422 1422 1421 1421 1421 1421 1421 1420 1420 1419 1419 1419 1419 1419 1420 1421 1421 1422 1424 1426 1429 1431 1434 1437 1440 1444 1447 1450 1452 1454 1455 1457
1444 1444 1444 1444 1440 1431 1428 1428 1426 1425 1423 1422 1420 1419 1419 1419 1420 1420 1420 1421 1421 1421 1421 1422 1422 1423 1424 1425 1426 1427 1429 1432 1434 1437 1440 1443 1446 1448 1451 1453 1454 1455 1456 1457
1437 1436 1438 1437 1431 1427 1425 1424 1423 1422 1421 1419 1418 1417 1417 1417 1418 1419 1420 1421 1422 1423 1424 1425 1426 1427 1428 1429 1431 1433 1435 1438 1440 1442 1445 1447 1449 1451 1453 1455 1456 1456 1456 1456
1434 1433 1433 1432 1427 1424 1422 1421 1421 1420 1418 1417 1415 1415 1415 1416 1417 1418 1420 1421 1423 1424 1426 1427 1429 1430 1432 1434 1436 1439 1441 1443 1445 1447 1449 1451 1453 1454 1455 1456 1456 1456 1456 1455
1429 1430 1430 1428 1424 1423 1421 1419 1418 1417 1416 1415 1414 1413 1414 1415 1416 1418 1420 1422 1423 1425 1427 1430 1432 1434 1436 1438 1440 1443 1445 1447 1449 1450 1452 1453 1455 1456 1456 1456 1456 1455 1455 1453